Regional Weather Roundup
Issued by NWS

Home | Current Version | Previous Version | Graphics & Text | Print | Product List | Glossary On
Versions: 1 2 3 4 5 6 7 8 9 10 11 12 13 14 15 16 17 18 19 20 21 22 23 24 25 26 27 28 29 30 31 32 33 34 35 36 37 38 39 40 41 42 43 44 45 46 47 48 49 50
469
ASUS43 KLMK 271002
RWRKY
KENTUCKY REGIONAL WEATHER ROUNDUP
NATIONAL WEATHER SERVICE LOUISVILLE KY
600 AM EDT WED JUL 27 2016

NOTE "FAIR" INDICATES FEW OR NO CLOUDS BELOW 12,000 FEET
WITH NO SIGNIFICANT WEATHER AND/OR OBSTRUCTIONS TO VISIBILITY.

KYZ001>023-026-027-061>063-070>075-271100-
WESTERN AND SOUTH CENTRAL KENTUCKY

CITY           SKY/WX    TMP DP  RH WIND       PRES   REMARKS
PADUCAH        MOCLDY    75  73  93 CALM      29.96S FOG
HENDERSON      CLOUDY    73  70  88 CALM      29.97R VSB 1/2
OWENSBORO      PTCLDY    76  76 100 CALM      29.98R
HOPKINSVILLE   PTCLDY    75  74  96 CALM      29.97R
BOWLING GREEN  PTCLDY    78  75  90 CALM      29.98R FOG
GLASGOW        NOT AVBL
$$

KYZ024-025-028>034-038-045-046-053-271100-
NORTH CENTRAL KENTUCKY

CITY           SKY/WX    TMP DP  RH WIND       PRES   REMARKS
LOUISVILLE/SDF MOCLDY    76  71  85 N5        29.98S
LOUISVILLE/LOU PTCLDY    76  71  85 CALM      29.99S
FORT KNOX      CLEAR     72  72  98 CALM      29.98R FOG
$$

KYZ035>037-039>044-047>052-055>060-089>105-271100-
NORTHEAST KENTUCKY

CITY           SKY/WX    TMP DP  RH WIND       PRES   REMARKS
LEXINGTON      PTCLDY    73  70  90 CALM      30.01R
COVINGTON      MOCLDY    73  73 100 CALM      30.01R FOG
FRANKFORT      PTCLDY    73  70  90 CALM      29.99S
$$

KYZ054-064>069-076>088-106>120-271100-
SOUTHEAST KENTUCKY

CITY           SKY/WX    TMP DP  RH WIND       PRES   REMARKS
JACKSON        CLEAR     74  71  91 CALM      30.03R
LONDON         CLOUDY    74  71  91 CALM      30.03R
SOMERSET       MOCLDY    73  73 100 CALM      30.03R
MIDDLESBORO    CLOUDY    73  72  98 CALM      30.05R
MONTICELLO     CLOUDY   N/A N/A N/A W8        30.03S
$$





USA.gov is the U.S. government's official web portal to all federal, state and local government web resources and services.